[[{"header":{"parameterUnit":"m.s-1","parameterCategory":1,"la1":30.2992,"la2":30.254,"lo1":-89.0895,"lo2":-89.0443,"dy":0.0025,"dx":0.0025,"nx":19,"ny":19,"refTime":"2026-05-11T09:00:00:Z","depth":0,"parameterNumber":2,"parameterNumberName":"U-component_of_WINDS"},"data":[0,0,0,0.2968,0.297,0.3062,0.3062,0.3176,0.3177,0,0,0,0,0,0,0,0,0,0,0,0.2937,0.2938,0.2968,0.297,0.3062,0.3062,0.3176,0.3177,0,0,0,0,0,0,0,0,0,0,0,0.2937,0.2937,0.2938,0.2971,0.3062,0.3062,0.3176,0.3108,0,0,0,0,0,0,0,0,0,0,0.302,0.2987,0.2937,0.2938,0.2971,0.3061,0.3062,0.3105,0.3112,0.3133,0,0.3148,0,0.3164,0.3184,0.3185,0,0,0,0.2974,0.298,0.3009,0.2938,0.2972,0.3061,0.3021,0.3109,0.3118,0.3142,0.3149,0.3154,0.3166,0.3185,0.3186,0.3286,0.3286,0,0,0.2969,0.2952,0.3003,0.3014,0.2997,0.3018,0.3024,0.3114,0.3122,0.315,0.3157,0.3168,0.3186,0.3187,0.3286,0.3286,0,0,0,0.2952,0.2948,0.2974,0.3009,0.3026,0.3021,0.3028,0.3118,0.3127,0.3158,0.3169,0.3186,0.3188,0.3285,0.3286,0.3283,0,0,0,0.2949,0.2938,0.2972,0.2962,0.3024,0.3072,0.3029,0.3121,0.3132,0.3169,0.3186,0.3189,0.3285,0.3285,0.3282,0.3284,0,0,0,0.2933,0.2936,0.2948,0.2961,0.3,0.3071,0.3086,0.3124,0.3139,0.3185,0.3189,0.3285,0.3285,0.3281,0.3283,0.3305,0,0,0,0.2911,0.2945,0.2948,0.2991,0.2999,0.3068,0.3086,0.3139,0.3178,0.3187,0.3285,0.3286,0.3281,0.3283,0.3304,0.3319,0.3323,0,0,0.2944,0.2948,0.2975,0.298,0.3044,0.3056,0.3121,0.3174,0.3195,0.3255,0.3258,0.3282,0.3283,0.3304,0.3358,0.3361,0,0,0,0.298,0.2999,0.302,0.3056,0.3096,0.3132,0.3176,0.3196,0.3248,0.3221,0.3297,0.3298,0.3311,0.3319,0.3322,0.3335,0.3289,0.3289,0.3289,0.3003,0.3027,0.3073,0.3109,0.3144,0.319,0.3221,0.3256,0.3271,0.3289,0.3306,0.3336,0.3344,0.3347,0.3359,0.3317,0.3317,0.3317,0.3317,0.3054,0.3084,0.3104,0.3155,0.3182,0.3226,0.3273,0.3283,0.3329,0.3324,0.3337,0.3329,0.335,0.3362,0.3317,0.3317,0.3317,0.3317,0.3317,0.307,0.3089,0.3112,0.3167,0.3207,0.3244,0.3287,0.331,0.3333,0.3346,0.3367,0.3367,0.3369,0.3354,0.3354,0.3354,0.3355,0.3355,0.3355,0.3077,0.3103,0.3136,0.3183,0.3209,0.3248,0.3296,0.3323,0.336,0.3374,0.3374,0.3387,0.3347,0.3336,0.3356,0.3356,0.3356,0.3356,0.3356,0.3117,0.3112,0.3162,0.3189,0.3246,0.3285,0.3315,0.3369,0.3396,0.3417,0.3429,0.3395,0.3401,0.3399,0.339,0.3423,0.3423,0.3423,0.3423,0.313,0.3135,0.3192,0.3233,0.3277,0.3309,0.3367,0.3406,0.3446,0.3464,0.3463,0.3454,0.345,0.3458,0.3455,0.3446,0.3493,0.3494,0.3494,0.3156,0.3167,0.321,0.3247,0.3295,0.3336,0.3391,0.3439,0.3484,0.3497,0.3479,0.3476,0.3461,0.3454,0.3465,0.3459,0.3444,0,0]},{"header":{"parameterUnit":"m.s-1","parameterCategory":1,"la1":30.2992,"la2":30.254,"lo1":-89.0895,"lo2":-89.0443,"dy":0.0025,"dx":0.0025,"nx":19,"ny":19,"refTime":"2026-05-11T09:00:00:Z","depth":0,"parameterNumber":3,"parameterNumberName":"V-component_of_WINDS"},"data":[0,0,0,-2.7966,-2.7966,-2.7946,-2.7946,-2.7941,-2.7941,0,0,0,0,0,0,0,0,0,0,0,-2.7985,-2.7986,-2.7966,-2.7966,-2.7946,-2.7946,-2.7941,-2.7941,0,0,0,0,0,0,0,0,0,0,0,-2.7985,-2.7986,-2.7986,-2.7966,-2.7946,-2.7946,-2.7941,-2.7949,0,0,0,0,0,0,0,0,0,0,-2.7964,-2.7995,-2.7986,-2.7986,-2.7966,-2.7946,-2.7946,-2.7949,-2.7948,-2.7959,0,-2.7973,0,-2.7957,-2.7942,-2.7942,0,0,0,-2.7956,-2.7996,-2.7978,-2.7986,-2.7966,-2.7946,-2.7952,-2.7948,-2.7948,-2.7959,-2.7973,-2.7972,-2.7957,-2.7942,-2.7942,-2.804,-2.8041,0,0,-2.7957,-2.7989,-2.7979,-2.7979,-2.7984,-2.7953,-2.7952,-2.7947,-2.7965,-2.7973,-2.7972,-2.7957,-2.7943,-2.7943,-2.8039,-2.804,0,0,0,-2.7967,-2.799,-2.7972,-2.798,-2.7974,-2.7953,-2.7951,-2.7965,-2.7957,-2.7972,-2.7957,-2.7943,-2.7943,-2.8038,-2.8039,-2.8114,0,0,0,-2.7967,-2.7996,-2.7973,-2.7993,-2.7975,-2.797,-2.797,-2.7957,-2.7955,-2.7957,-2.7943,-2.7943,-2.8037,-2.8038,-2.811,-2.8144,0,0,0,-2.7982,-2.7998,-2.7999,-2.7995,-2.7987,-2.7969,-2.796,-2.7956,-2.7947,-2.7942,-2.7943,-2.8036,-2.8038,-2.8106,-2.8138,-2.8177,0,0,0,-2.8007,-2.8068,-2.8001,-2.8063,-2.7988,-2.8016,-2.796,-2.798,-2.7985,-2.7943,-2.8037,-2.8039,-2.8105,-2.8134,-2.8173,-2.8214,-2.8235,0,0,-2.8101,-2.808,-2.8114,-2.8054,-2.8102,-2.8017,-2.8076,-2.8051,-2.8022,-2.8035,-2.8037,-2.8111,-2.8137,-2.8176,-2.8344,-2.8361,0,0,0,-2.8154,-2.8179,-2.8185,-2.8191,-2.8173,-2.8159,-2.8121,-2.8111,-2.8121,-2.8035,-2.8136,-2.8151,-2.8172,-2.819,-2.8204,-2.822,-2.8049,-2.8049,-2.8049,-2.8333,-2.8291,-2.8343,-2.8298,-2.8305,-2.8264,-2.8265,-2.8245,-2.8202,-2.8227,-2.823,-2.8337,-2.836,-2.837,-2.8387,-2.825,-2.825,-2.8251,-2.8251,-2.8464,-2.8491,-2.8431,-2.846,-2.8416,-2.8439,-2.8402,-2.8371,-2.8385,-2.8332,-2.8349,-2.8292,-2.839,-2.8402,-2.8256,-2.8255,-2.8255,-2.8254,-2.8254,-2.8575,-2.858,-2.8567,-2.8569,-2.8576,-2.8529,-2.8545,-2.8504,-2.8466,-2.8483,-2.848,-2.8479,-2.8471,-2.8485,-2.8486,-2.8486,-2.8486,-2.8486,-2.8487,-2.8693,-2.8676,-2.8694,-2.8679,-2.8676,-2.8667,-2.8626,-2.8622,-2.8607,-2.8576,-2.8576,-2.8529,-2.8408,-2.8377,-2.8492,-2.8491,-2.849,-2.849,-2.849,-2.8839,-2.8799,-2.8828,-2.8825,-2.8802,-2.881,-2.8758,-2.8752,-2.8743,-2.8752,-2.8702,-2.862,-2.8595,-2.8583,-2.8557,-2.8712,-2.8712,-2.8712,-2.8712,-2.893,-2.8914,-2.8932,-2.893,-2.8923,-2.8878,-2.891,-2.8878,-2.8839,-2.8831,-2.8803,-2.8765,-2.8756,-2.8737,-2.8722,-2.8696,-2.8883,-2.8883,-2.8884,-2.9016,-2.8996,-2.9032,-2.8993,-2.8971,-2.8954,-2.8981,-2.898,-2.8928,-2.889,-2.8822,-2.8815,-2.8754,-2.8737,-2.8696,-2.8674,-2.8627,0,0]}]]